Location: Newark
(49.8969°N, 3.3422°E)
Time: 19:09:31
(UTC+00:00)

Transit 2A Rocket - All Passes

Search period start: 27 January 2020 00:00
Search period end: 06 February 2020 00:00
Orbit: 593 x 910 km, 66.7° (Epoch: 27 January)

Date Brightness Start Highest point End Pass type
(mag) Time Alt. Az. Time Alt. Az. Time Alt. Az.
27 Jan - 04:27:16 10° S 04:31:22 45° ESE 04:35:32 10° NE visible
27 Jan - 06:10:15 10° WSW 06:14:03 30° NW 06:17:59 10° NNE visible
27 Jan - 07:56:41 10° NNW 07:58:07 11° NNW 07:59:34 10° N daylight
27 Jan - 09:41:40 10° N 09:42:51 11° NNE 09:44:03 10° NNE daylight
27 Jan - 11:23:06 10° NNW 11:27:02 26° NE 11:31:14 10° E daylight
27 Jan - 13:05:13 10° NW 13:10:01 74° WSW 13:15:16 10° SSE daylight
27 Jan - 14:49:51 10° W 14:51:53 12° WSW 14:54:00 10° SW daylight
28 Jan - 03:45:26 10° S 03:49:01 26° ESE 03:52:39 10° ENE visible
28 Jan - 05:27:11 10° WSW 05:31:19 45° NW 05:35:36 10° NNE visible
28 Jan - 07:12:46 10° NW 07:15:03 14° NNW 07:17:22 10° N daylight
28 Jan - 10:40:46 10° NNW 10:44:09 19° NNE 10:47:43 10° ENE daylight
28 Jan - 12:22:41 10° NNW 12:27:28 72° NE 12:32:42 10° SE daylight
28 Jan - 14:06:00 10° WNW 14:09:39 21° WSW 14:13:31 10° SSW daylight
29 Jan - 03:04:16 10° SE 03:06:46 15° ESE 03:09:17 10° ENE visible
29 Jan - 04:44:24 10° SW 04:48:41 74° NW 04:53:07 10° NE visible
29 Jan - 06:29:04 10° WNW 06:32:02 18° NNW 06:35:06 10° NNE visible
29 Jan - 09:58:29 10° NNW 10:01:11 15° NNE 10:03:58 10° ENE daylight
29 Jan - 11:40:14 10° NNW 11:44:50 47° NE 11:49:51 10° ESE daylight
29 Jan - 13:22:55 10° NW 13:27:19 33° WSW 13:32:02 10° S daylight
30 Jan - 04:01:55 10° SSW 04:06:10 65° ESE 04:10:32 10° NE visible
30 Jan - 05:45:35 10° W 05:49:07 24° NW 05:52:47 10° NNE visible
30 Jan - 07:32:34 10° NNW 07:33:23 10° N 07:34:12 10° N daylight
30 Jan - 09:16:14 10° N 09:18:07 12° NNE 09:20:03 10° NE daylight
30 Jan - 10:57:50 10° NNW 11:02:07 32° NE 11:06:43 10° ESE daylight
30 Jan - 12:40:09 10° NW 12:44:53 54° WSW 12:50:04 10° SSE daylight
31 Jan - 03:19:48 10° S 03:23:46 37° ESE 03:27:48 10° NE visible
31 Jan - 05:02:22 10° WSW 05:06:19 34° NW 05:10:24 10° NNE visible
31 Jan - 06:48:28 10° NW 06:50:16 12° NNW 06:52:05 10° N visible
31 Jan - 08:34:04 10° N 08:35:00 10° N 08:35:57 10° NNE daylight
31 Jan - 10:15:29 10° NNW 10:19:18 23° NE 10:23:20 10° E daylight
31 Jan - 11:57:32 10° NW 12:02:23 86° SW 12:07:42 10° SSE daylight
31 Jan - 13:41:32 10° WNW 13:44:22 15° WSW 13:47:20 10° SW daylight
01 Feb - 02:38:09 10° SSE 02:41:27 22° ESE 02:44:48 10° ENE visible
01 Feb - 04:19:25 10° SW 04:23:37 53° NW 04:27:59 10° NNE visible
01 Feb - 06:04:39 10° WNW 06:07:12 15° NNW 06:09:51 10° NNE visible
01 Feb - 09:33:10 10° NNW 09:36:22 18° NNE 09:39:44 10° ENE daylight
01 Feb - 11:15:02 10° NNW 11:19:49 62° NE 11:25:02 10° SE daylight
01 Feb - 12:58:05 10° WNW 13:02:06 25° WSW 13:06:22 10° SSW daylight
02 Feb - 01:57:25 10° SE 01:59:15 12° ESE 02:01:04 10° E night (unlit)
02 Feb - 03:36:44 10° SW 03:41:01 88° WNW 03:45:28 10° NE visible
02 Feb - 05:21:02 10° WNW 05:24:15 20° NNW 05:27:33 10° NNE visible
02 Feb - 08:50:52 10° N 08:53:22 14° NNE 08:55:56 10° NE daylight
02 Feb - 10:32:36 10° NNW 10:37:09 41° NE 10:42:04 10° ESE daylight
02 Feb - 12:15:09 10° NW 12:19:44 40° WSW 12:24:41 10° S daylight
03 Feb - 02:54:22 10° SSW 02:58:33 54° ESE 03:02:51 10° NE visible
03 Feb - 04:37:40 10° W 04:41:22 27° NW 04:45:12 10° NNE visible
03 Feb - 06:24:16 10° NNW 06:25:32 11° NNW 06:26:50 10° N visible
03 Feb - 08:08:37 10° N 08:10:17 12° NNE 08:11:59 10° NE daylight
03 Feb - 09:50:13 10° NNW 09:54:23 29° NE 09:58:51 10° E daylight
03 Feb - 11:32:26 10° NW 11:37:17 64° WSW 11:42:34 10° SSE daylight
03 Feb - 13:17:57 10° W 13:19:03 11° WSW 13:20:11 10° WSW daylight
04 Feb - 02:12:23 10° S 02:16:10 31° ESE 02:20:02 10° NE visible
04 Feb - 03:54:31 10° WSW 03:58:35 40° NW 04:02:49 10° NNE visible
04 Feb - 05:40:19 10° NW 05:42:26 13° NNW 05:44:36 10° N visible
04 Feb - 07:26:25 10° N 07:27:08 10° N 07:27:52 10° NNE daylight
04 Feb - 09:07:52 10° NNW 09:11:32 21° NNE 09:15:24 10° E daylight
04 Feb - 10:49:52 10° NW 10:54:45 82° NE 11:00:06 10° SE daylight
04 Feb - 12:33:26 10° WNW 12:36:51 18° WSW 12:40:25 10° SSW daylight
05 Feb - 01:30:58 10° SSE 01:33:54 18° ESE 01:36:52 10° ENE night (unlit)
05 Feb - 03:11:39 10° SW 03:15:55 64° NW 03:20:21 10° NNE visible
05 Feb - 04:56:35 10° WNW 04:59:24 16° NNW 05:02:19 10° NNE visible
05 Feb - 08:25:33 10° NNW 08:28:34 16° NNE 08:31:44 10° ENE daylight
05 Feb - 10:07:23 10° NNW 10:12:08 54° NE 10:17:19 10° SE daylight
05 Feb - 11:50:14 10° NW 11:54:32 29° WSW 11:59:09 10° S daylight
